EW1549 Weather Reports


time (UTC)temp
C
wind
direction
speed
KPH
gust
KPH
rain 1hr
cm
rain 24hr
cm
rain mn
cm
humidity
%
barometer
mb
20260904193012 -17 243 0.0 8.0 0.00 0.00 0.00 1018.5
20260904191507 -17 259 0.0 4.8 0.00 0.00 0.00 1018.3
20260904190002 -17 317 1.6 8.0 0.00 0.00 0.00 1018.2
20260904184558 -17 360 0.0 9.7 0.00 0.00 0.00 1018.3
20260904183109 -17 14 0.0 14.5 0.00 0.00 0.00 1018.2
20260904181549 -17 24 4.8 14.5 0.00 0.00 0.00 1018.2
20260904180047 -17 360 8.0 14.5 0.00 0.00 0.00 1018.1
20260904174543 -17 41 4.8 24.1 0.00 0.00 0.00 1018.2
20260904173038 -17 1 8.0 20.9 0.00 0.00 0.00 1018.2
20260904171540 -17 41 17.7 27.4 0.00 0.00 0.00 1018.2
20260904170029 -17 32 20.9 30.6 0.00 0.00 0.00 1018.1
20260904164524 -17 36 19.3 24.1 0.00 0.00 0.00 1018.1
20260904163020 -17 21 14.5 29.0 0.00 0.00 0.00 1017.9
20260904161515 -17 17 16.1 27.4 0.00 0.00 0.00 1017.8
20260904160012 -17 23 12.9 19.3 0.00 0.00 0.00 1017.9
20260904154507 -17 12 11.3 22.5 0.00 0.00 0.00 1018.0
20260904153002 -17 51 8.0 16.1 0.00 0.00 0.00 1018.1
20260904151557 -17 346 9.7 19.3 0.00 0.00 0.00 1018.3
20260904150053 -17 58 11.3 17.7 0.00 0.00 0.00 1018.2
20260904144548 -17 302 6.4 16.1 0.00 0.00 0.00 1018.4
20260904143044 -17 11 9.7 19.3 0.00 0.00 0.00 1018.4
20260904141542 -17 23 17.7 22.5 0.00 0.00 0.00 1018.5
20260904140043 -17 5 8.0 24.1 0.00 0.00 0.00 1018.6
20260904134542 -17 36 9.7 17.7 0.00 0.00 0.00 1018.8
20260904133046 -17 25 9.7 17.7 0.00 0.00 0.00 1018.9
20260904131546 -17 15 6.4 16.1 0.00 0.00 0.00 1018.9
20260904130033 -17 30 9.7 16.1 0.00 0.00 0.00 1018.9
20260904124529 -17 13 8.0 20.9 0.00 0.00 0.00 1019.2
20260904123024 -17 6 12.9 19.3 0.00 0.00 0.00 1019.3
20260904121520 -17 19 6.4 14.5 0.00 0.00 0.00 1019.4
20260904120020 -17 31 9.7 20.9 0.00 0.00 0.00 1019.4
20260904114511 -17 36 11.3 19.3 0.00 0.00 0.00 1019.5
20260904113019 -17 19 11.3 17.7 0.00 0.00 0.00 1019.7
20260904111502 -17 10 6.4 14.5 0.00 0.00 0.00 1019.9
20260904104559 -17 355 8.0 14.5 0.00 0.00 0.00 1019.6
20260904103057 -17 284 1.6 6.4 0.00 0.00 0.00 1019.7
20260904101552 -17 254 0.0 0.0 0.00 0.00 0.00 1019.8
20260904100045 -17 254 0.0 0.0 0.00 0.00 0.00 1019.7
20260904094556 -17 254 3.2 4.8 0.00 0.00 0.00 1019.6
20260904093035 -17 254 0.0 0.0 0.00 0.00 0.00 1019.7
20260904091530 -17 254 0.0 4.8 0.00 0.00 0.00 1019.8
20260904090025 -17 254 3.2 6.4 0.00 0.00 0.00 1019.7
20260904084521 -17 254 3.2 6.4 0.00 0.00 0.00 1019.5
20260904083031 -17 254 0.0 4.8 0.00 0.00 0.00 1019.4
20260904081513 -17 254 0.0 0.0 0.00 0.00 0.00 1019.4
20260904080008 -17 254 0.0 0.0 0.00 0.00 0.00 1019.3
20260904074503 -17 254 0.0 0.0 0.00 0.00 0.00 1019.4
20260904073115 -17 254 0.0 0.0 0.00 0.00 0.00 1019.2
20260904071555 -17 254 0.0 0.0 0.00 0.00 0.00 1019.0
20260904070051 -17 254 0.0 0.0 0.00 0.00 0.00 1019.0
20260904064547 -17 254 0.0 0.0 0.00 0.00 0.00 1019.1
20260904063045 -17 254 0.0 0.0 0.00 0.00 0.00 1019.0
20260904061537 -17 254 0.0 3.2 0.00 0.00 0.00 1018.7
20260904060051 -17 254 1.6 6.4 0.00 0.00 0.00 1018.8
20260904054540 -17 254 4.8 8.0 0.00 0.00 0.00 1018.9
20260904053033 -17 254 4.8 8.0 0.00 0.00 0.00 1018.8
20260904051516 -17 254 3.2 6.4 0.00 0.00 0.00 1018.9
20260904050027 -17 254 0.0 0.0 0.00 0.00 0.00 1018.8
20260904044507 -17 254 0.0 0.0 0.00 0.00 0.00 1018.7
20260904043104 -17 254 0.0 0.0 0.00 0.00 0.00 1018.6
20260904041604 -17 254 0.0 3.2 0.00 0.00 0.00 1018.5
20260904040050 -17 254 3.2 4.8 0.00 0.00 0.00 1018.4
20260904034536 -17 254 0.0 0.0 0.00 0.00 0.00 1018.5
20260904033027 -17 254 0.0 0.0 0.00 0.00 0.00 1018.7
20260904031521 -17 254 0.0 0.0 0.00 0.00 0.00 1018.7
20260904030019 -17 254 1.6 4.8 0.00 0.00 0.00 1018.7
20260904024521 -17 254 1.6 3.2 0.00 0.00 0.00 1018.8
20260904023007 -17 254 1.6 4.8 0.00 0.00 0.00 1018.8
20260904021507 -17 254 3.2 6.4 0.00 0.00 0.00 1019.2
20260904014617 -17 254 0.0 0.0 0.00 0.00 0.00 1019.6
20260904013105 -17 254 0.0 0.0 0.00 0.00 0.00 1019.7
20260904011545 -17 254 0.0 0.0 0.00 0.00 0.00 1019.8
20260904010041 -17 254 0.0 0.0 0.00 0.00 0.00 1019.8
20260904004538 -17 254 0.0 0.0 0.00 0.00 0.00 1019.8
20260904003035 -17 254 0.0 4.8 0.00 0.00 0.00 1019.9
20260904001627 -17 254 3.2 4.8 0.00 0.00 0.00 1020.1
20260904000024 -17 254 0.0 0.0 0.00 0.00 0.00 1020.3
20260903234531 -17 254 0.0 0.0 0.00 0.00 0.00 1020.3
20260903233028 -17 254 0.0 0.0 0.00 0.00 0.00 1020.2
20260903231510 -17 254 0.0 0.0 0.00 0.00 0.00 1020.2
20260903230107 -17 254 0.0 0.0 0.00 0.00 0.00 1020.2
20260903224505 -17 254 0.0 3.2 0.00 0.00 0.00 1020.2
20260903223002 -17 254 3.2 4.8 0.00 0.00 0.00 1020.3
20260903221557 -17 254 0.0 0.0 0.00 0.00 0.00 1020.5
20260903220052 -17 254 0.0 0.0 0.00 0.00 0.00 1020.4
20260903214551 -17 254 0.0 4.8 0.00 0.00 0.00 1020.2
20260903213045 -17 254 3.2 6.4 0.00 0.00 0.00 1020.1
20260903211553 -17 254 0.0 0.0 0.00 0.00 0.00 1020.0
20260903210035 -17 254 0.0 0.0 0.00 0.00 0.00 1019.8
20260903204530 -17 254 0.0 0.0 0.00 0.00 0.00 1019.6
20260903203029 -17 254 0.0 0.0 0.00 0.00 0.00 1019.2
20260903201522 -17 254 3.2 6.4 0.00 0.00 0.00 1018.9
20260903200021 -17 254 0.0 6.4 0.00 0.00 0.00 1018.7
20260903194521 -17 320 0.0 8.0 0.00 0.00 0.00 1018.6